sat.trackr.live / text

‹ back to catalog

RUNNER-1 (TYVAK-1005)

NORAD 56953 · 2023-084X

PAYLOAD ACTIVE UNKNOWN

§ Identity

Operator
Country
US
Launch date
2023-06-12
Launch site
AFWTR
Launch vehicle
Mass (kg)
RCS (m²)

External: N2YO · Heavens-Above · Gunter

§ Orbital elements

Epoch: 2026-05-24T23:06:23.671872Z

Period
93.68 min
Inclination
97.6205°
Eccentricity
0.0008612
Mean motion
15.37225222 rev/d
Perigee alt
448.4 km
Apogee alt
460.2 km
Semi-major
6,832.5 km
B*
2.5177e-4
RAAN
286.1945°
Arg perigee
45.3272°
Mean anomaly
314.8672°
Rev number
16,403

§ Raw data

RUNNER-1 (TYVAK-1005)1 56953U 23084X   26144.96277398  .00009104  00000+0  25177-3 0  99912 56953  97.6205 286.1945 0008612  45.3272 314.8672 15.37225222164030

JSON: /api/v1/satellites/56953 · /tle

For live sub-satellite position, see the globe view (requires WebGL).

§ Visibility from observer

Set your observer location to see the next 7 days of passes ≥ 10°. The values pass through the URL so the page stays shareable.

No JS? Fill the form by hand. The geolocation button needs JavaScript.

§ Radio — SatNOGS DB

ModeDescriptionDownlinkUplink
FM Mode S1 2.067 GHz
FM Mode S2 2.242 GHz

2 transmitters · refreshed weekly from db.satnogs.org